Preview of NWS' New Version of Forecast
This preview is not operational and should not be used for support decisions.

Regional Weather Roundup (RWR)

Issued by National Weather Service (NWS)

                            
000
ASUS46 KSEW 221210
RWRWA 

WASHINGTON REGIONAL WEATHER ROUNDUP
NATIONAL WEATHER SERVICE SEATTLE WA
500 AM PDT THU AUG 22 2019

NOTE:"FAIR" INDICATES FEW OR NO CLOUDS BELOW 12,000 FEET WITH NO 
SIGNIFICANT WEATHER AND/OR OBSTRUCTIONS TO VISIBILITY.

WAZ507-509-555>559-221300-
SEATTLE, TACOMA, EVERETT, AND VICINITY
  
CITY           SKY/WX    TMP DP  RH WIND       PRES   REMARKS
EVERETT        MOCLDY    55  53  93 CALM      30.05R                  
6HR MIN TEMP:  55; 6HR MAX TEMP:  57;                                

BOEING FIELD   CLOUDY    59  55  87 S5        30.05R                  
6HR MIN TEMP:  59; 6HR MAX TEMP:  62; 6HR PCP: TRACE;                

RENTON         CLOUDY    60  57  89 S3        30.05R                  
6HR MIN TEMP:  59; 6HR MAX TEMP:  62; 6HR PCP:  0.02;                

SEATAC AIRPORT CLOUDY    56  54  93 SW8       30.05R                  
6HR MIN TEMP:  56; 6HR MAX TEMP:  62; 6HR PCP:  0.07;                

JBLM-MCCHORD   MOCLDY    55  54  94 CALM      30.05S                  
PUYALLUP       CLOUDY    55  55 100 CALM      30.06R                  
BREMERTON      FOG       55  55 100 SW6       30.06R VSB 1/2          
6HR MIN TEMP:  56; 6HR MAX TEMP:  60;                                

JBLM-FT LEWIS  CLOUDY    55  55 100 S8        30.05R                  
TACOMA NARROWS CLOUDY    53  53 100 SW6       30.06R                  
6HR MIN TEMP:  53; 6HR MAX TEMP:  57; 6HR PCP:  0.02;                

$$
 
WAZ001-503-506-510-514-515-221300-
NORTH INTERIOR
  
CITY           SKY/WX    TMP DP  RH WIND       PRES   REMARKS
BELLINGHAM     MOCLDY    55  51  86 CALM      30.03R                  
6HR MIN TEMP:  54; 6HR MAX TEMP:  59;                                

FRIDAY HARBOR  MOCLDY    50  50 100 CALM      30.04R                  
6HR MIN TEMP:  49; 6HR MAX TEMP:  54;                                

EASTSOUND      PTCLDY    54  52  94 CALM      30.02R                  
PORT ANGELES   CLEAR     47  46  97 CALM      30.04R                  
6HR MIN TEMP:  46; 6HR MAX TEMP:  54;                                

EDIZ HOOK      FAIR      51  49  93 W6        30.04R                  
6HR MIN TEMP:  51; 6HR MAX TEMP:  56;                                

PORT TOWNSEND  FAIR      52  50  93 CALM      30.03R                  
NAS WHIDBEY    PTCLDY    55  51  86 S3        30.07S                  
6HR MIN TEMP:  54; 6HR MAX TEMP:  59;                                

ARLINGTON      PTCLDY    52  52 100 CALM      30.05R                  
6HR MIN TEMP:  52; 6HR MAX TEMP:  58;                                

BURLINGTON     PTCLDY    54  52  94 CALM      30.04R FOG              
$$
 
WAZ020-022-039-040-504-511-512-221300-
SOUTHWEST INTERIOR
  
CITY           SKY/WX    TMP DP  RH WIND       PRES   REMARKS
SHELTON        CLOUDY    55  52  89 W3        30.04R FOG              
6HR MIN TEMP:  55; 6HR MAX TEMP:  58; 6HR PCP:  0.01;                

OLYMPIA        LGT RAIN  55  52  89 S3        30.05R FOG              
6HR MIN TEMP:  53; 6HR MAX TEMP:  58; 6HR PCP:  0.01;                

CHEHALIS       CLOUDY    52  52 100 CALM      30.07R                  
KELSO          CLOUDY    57  53  86 CALM      30.08S                  
6HR MIN TEMP:  55; 6HR MAX TEMP:  58;                                

VANCOUVER      MOCLDY    53  50  89 CALM      30.06S                  
6HR MIN TEMP:  53; 6HR MAX TEMP:  63;                                

SCAPPOOSE, OR  CLEAR     50  48  93 W3        30.06S                  
6HR MIN TEMP:  49; 6HR MAX TEMP:  61;                                

PORTLAND, OR   PTCLDY    56  50  80 CALM      30.07S                  
6HR MIN TEMP:  56; 6HR MAX TEMP:  64;                                

$$
 
WAZ021-516-517-221300-
WASHINGTON COAST
  
CITY           SKY/WX    TMP DP  RH WIND       PRES   REMARKS
FORKS          CLOUDY    54  53  97 CALM      30.03F                  
6HR MIN TEMP:  49; 6HR MAX TEMP:  55;                                

HOQUIAM        MOCLDY    56  55  97 CALM      30.06R                  
6HR MIN TEMP:  55; 6HR MAX TEMP:  58;                                

ASTORIA, OR    MOCLDY    54  52  93 SE5       30.07R                  
6HR MIN TEMP:  53; 6HR MAX TEMP:  57;                                

$$
 
WAZ019-023-024-040-567>569-221300-
CASCADE MOUNTAINS AND COLUMBIA GORGE
  
CITY           SKY/WX    TMP DP  RH WIND       PRES   REMARKS
STAMPEDE PASS  FOG       49  47  93 VRB5      30.05R VSB 1/4          
6HR MIN TEMP:  49; 6HR MAX TEMP:  53;                                

TROUTDALE, OR  CLOUDY    57  51  80 SW5       30.07R                  
6HR MIN TEMP:  57; 6HR MAX TEMP:  64;                                

HOOD RIVER, OR MOSUNNY   59  52  77 W3        30.00R                  
THE DALLES, OR CLEAR     62  52  69 NW17      29.96R                  
6HR MIN TEMP:  62; 6HR MAX TEMP:  66; 6HR PCP: TRACE;                

$$

WAZ026-027-041>044-520-521-221300-
EAST SLOPES
  
CITY           SKY/WX    TMP DP  RH WIND       PRES   REMARKS
OMAK           CLOUDY    61  55  81 NW5       29.90R                  
6HR MIN TEMP:  61; 6HR MAX TEMP:  68; 6HR PCP:  0.01;                

WENATCHEE      CLEAR     62  50  64 W8        29.89R                  
6HR MIN TEMP:  62; 6HR MAX TEMP:  69;                                

ELLENSBURG     CLEAR     62  52  69 NW14      29.92R                  
6HR MIN TEMP:  62; 6HR MAX TEMP:  66;                                

YAKIMA         CLEAR     54  48  80 SW6       29.92R                  
6HR MIN TEMP:  53; 6HR MAX TEMP:  69;                                

SUNNYSIDE ARPT SUNNY     54  53  99 CALM      29.91                   
6HR MIN TEMP:  53; 6HR MAX TEMP:  61;                                

YAKIMA TC      FAIR      60  50  67 CALM      29.91R                  
6HR MIN TEMP:  56; 6HR MAX TEMP:  67;                                

$$

WAZ028-034-035-221300-
COLUMBIA BASIN
  
CITY           SKY/WX    TMP DP  RH WIND       PRES   REMARKS
EPHRATA        PTCLDY    58  58 100 NE8       29.88R                  
6HR MIN TEMP:  55; 6HR MAX TEMP:  62;                                

MOSES LAKE     PTCLDY    58  55  90 NW6       29.88R                  
6HR MIN TEMP:  58; 6HR MAX TEMP:  66;                                

PASCO          CLEAR     60  57  89 CALM      29.89R                  
6HR MIN TEMP:  60; 6HR MAX TEMP:  69;                                

RICHLAND ARPT  SUNNY     64  60  86 SW8       29.89                   
6HR MIN TEMP:  63; 6HR MAX TEMP:  67;                                

HERMISTON, OR  PTCLDY    63  58  83 SW8       29.91R                  
6HR MIN TEMP:  63; 6HR MAX TEMP:  65;                                

$$

WAZ036>038-221300-
NORTHEAST WASHINGTON
  
CITY           SKY/WX    TMP DP  RH WIND       PRES   REMARKS
SPOKANE GEIGER CLOUDY    61  55  81 S6        29.91S                  
6HR MIN TEMP:  60; 6HR MAX TEMP:  66; 6HR PCP: TRACE;                

SPOKANE FELTS  CLOUDY    62  59  90 NE3       29.91S                  
6HR MIN TEMP:  62; 6HR MAX TEMP:  66; 6HR PCP:  0.02;                

FAIRCHILD AFB  CLOUDY    60  60 100 S7        29.91S                  
6HR MIN TEMP:  60; 6HR MAX TEMP:  64; 6HR PCP: TRACE;                

COEURDALENE,ID RAIN      59  58  96 W8        29.93S FOG              
6HR MIN TEMP:  59; 6HR MAX TEMP:  64;                                

DEER PARK      CLOUDY    59  57  93 SE5       29.92S                  
6HR MIN TEMP:  59; 6HR MAX TEMP:  65; 6HR PCP:  0.01;                

$$

WAZ029>033-221300-
SOUTHEAST WASHINGTON
  
CITY           SKY/WX    TMP DP  RH WIND       PRES   REMARKS
PULLMAN        CLEAR     58  57  97 CALM      29.94F                  
6HR MIN TEMP:  57; 6HR MAX TEMP:  61; 6HR PCP:  0.01;                

LEWISTON, ID   MOCLDY    65  60  84 CALM      29.90F                  
6HR MIN TEMP:  64; 6HR MAX TEMP:  67; 6HR PCP:  0.01;                

WALLA WALLA    CLEAR     63  57  81 S13       29.92S                  
6HR MIN TEMP:  63; 6HR MAX TEMP:  68;                                

PENDLETON, OR  CLOUDY    63  55  75 W10       29.94R                  
6HR MIN TEMP:  59; 6HR MAX TEMP:  65;                                

$$